THE BLOG
09/11/2015 04:00 pm ET Updated Dec 06, 2017

Chennai: A Photoblog

Chennai straddles the divide between traditional and modern with much élan. This iconic city on the Coromandel coast celebrated its 376th birthday last month. Synonymous with the phrase 'down south', the city braids the old with the new, braves the heat and humidity and still retains its vim and vigor.

From filter coffee to vivid Kancheevarams from ancient temples to the emerging automotive corridor, from the twin delights, idli and dosa, to carnatic music and Bharatanaatyam, from colonial buildings to a vibrant beach culture like nowhere else, from street food to the fine arts, from cricket, tennis and chess to kollywood, chennai is known for many things.

The photos that follow are just a fragment of the city. A fragment with a flavor.

1. 2015-09-09-1441825714-120161-548061_434650516561289_614423080_n.jpg

2. 2015-09-09-1441825759-6812864-226500_1083899771330_2292_n2.jpg

3. 2015-09-09-1441825791-7613413-DSC_00362.jpeg

4. 2015-09-09-1441826182-1725971-DSC_1331.jpeg

5. 2015-09-09-1441826215-7862055-DSC_1369.jpeg

6. 2015-09-09-1441826287-567994-DSC_1381.jpg

7. 2015-09-09-1441826317-7212787-DSC_1474.jpg

8. 2015-09-09-1441826358-3301038-DSC_1512.jpeg

9. 2015-09-09-1441826541-2504727-DSC_1537.jpg

10. 2015-09-09-1441826621-1247602-DSC_1537.jpg

11. 2015-09-09-1441826660-807477-DSC_1568.jpg

12. 2015-09-09-1441826794-1888407-225115_1083899891333_3212_n.jpg

13. 2015-09-09-1441826968-1018274-DSC_0070.jpeg

14. 2015-09-09-1441827078-3240013-DSC_0106.jpeg

15. 2015-09-09-1441827142-8998286-DSC_0130.jpeg

16. 2015-09-09-1441827174-47497-DSC_1520_4.jpg

17. 2015-09-09-1441827209-5692414-DSC_0166_2.jpg

18. 2015-09-09-1441827241-335713-DSC_1581.jpg

19. 2015-09-09-1441827328-4948646-DSC06673c.jpg

20. 2015-09-09-1441827426-2497314-IMG_3337.JPG